Preview of NWS' New Version of Forecast
This preview is not operational and should not be used for support decisions.

Regional Weather Roundup (RWR)

Issued by National Weather Service (NWS)

                            
000
ASUS43 KMKX 170011
RWRWI 

WISCONSIN REGIONAL WEATHER ROUNDUP
NATIONAL WEATHER SERVICE MILWAUKEE/SULLIVAN WI
700 PM CDT SUN JUN 16 2019

NOTE: "FAIR" INDICATES FEW OR NO CLOUDS BELOW 12,000 FEET WITH NO
SIGNIFICANT WEATHER AND/OR OBSTRUCTIONS TO VISIBILITY.

WIZ001-002-006>008-014>016-023>028-170100-
NORTHWEST WISCONSIN
  
CITY           SKY/WX    TMP DP  RH WIND       PRES   REMARKS
SUPERIOR ARPT  FAIR      50  45  80 NE10      29.96F                  
6HR MIN TEMP:  50; 6HR MAX TEMP:  56;                                

ASHLAND        PTSUNNY   56  47  71 NE13      29.97F                  
6HR MIN TEMP:  55; 6HR MAX TEMP:  63;                                

HAYWARD        CLOUDY    67  50  54 NE12      29.92S                  
6HR MIN TEMP:  67; 6HR MAX TEMP:  73;                                

SIREN          FAIR      74  40  29 SE3       29.90F                  
CUMBERLAND     FAIR      68  43  40 S3        29.93S                  
RICE LAKE      FAIR      69  53  55 S8        29.94S HAZE             
6HR MIN TEMP:  65; 6HR MAX TEMP:  71;                                

CHETEK         PTSUNNY   67  55  66 S9        29.93S                  
6HR MIN TEMP:  65; 6HR MAX TEMP:  69;                                

LADYSMITH      PTSUNNY   68  55  62 S12       29.95R                  
6HR MIN TEMP:  64; 6HR MAX TEMP:  72;                                

EAU CLAIRE     CLOUDY    61  53  75 S7        29.94R                  
6HR MIN TEMP:  60; 6HR MAX TEMP:  65;                                

MENOMONIE      CLOUDY    60  52  74 SE8       29.95R                  
6HR MIN TEMP:  57; 6HR MAX TEMP:  64;                                

NEW RICHMOND   FAIR      68  53  59 SE7       29.92S                  
6HR MIN TEMP:  65; 6HR MAX TEMP:  71;                                

OSCEOLA        FAIR      71  55  56 SE10      29.93F                  
6HR MIN TEMP:  69; 6HR MAX TEMP:  73;                                

$$
 
WIZ003>005-009-010-017-018-170100-
NORTH CENTRAL WISCONSIN
  
CITY           SKY/WX    TMP DP  RH WIND       PRES   REMARKS
MANITOWISH WTR FAIR      68  47  48 NE7       29.93S                  
6HR MIN TEMP:  63; 6HR MAX TEMP:  71;                                

ARBOR VITAE    FAIR      72  42  34 SW3       29.93S                  
6HR MIN TEMP:  64; 6HR MAX TEMP:  72;                                

WOODRUFF       FAIR      72  42  34 SW3       29.93S                  
6HR MIN TEMP:  64; 6HR MAX TEMP:  72;                                

RHINELANDER    FAIR      73  36  25 E3        29.93S                  
6HR MIN TEMP:  68; 6HR MAX TEMP:  75;                                

EAGLE RIVER    FAIR      69  37  30 E6        29.93S                  
6HR MIN TEMP:  65; 6HR MAX TEMP:  71;                                

LAND O LAKES   FAIR      68  47  47 NE6       29.95S                  
6HR MIN TEMP:  66; 6HR MAX TEMP:  72;                                

PHILLIPS       FAIR      69  43  39 CALM      29.92S                  
6HR MIN TEMP:  63; 6HR MAX TEMP:  71;                                

TOMAHAWK       FAIR      66  51  58 CALM      29.94R                  
6HR MIN TEMP:  64; 6HR MAX TEMP:  71;                                

MEDFORD        CLOUDY    60  51  73 S8        29.95S                  
6HR MIN TEMP:  59; 6HR MAX TEMP:  64;                                

MERRILL        FAIR      64  49  58 S9        29.96R                  
6HR MIN TEMP:  62; 6HR MAX TEMP:  67;                                

$$
 
WIZ029-030-035-036-043>047-170100-
CENTRAL WISCONSIN
  
CITY           SKY/WX    TMP DP  RH WIND       PRES   REMARKS
WAUSAU         FAIR      60  50  69 SW6       29.94S                  
6HR MIN TEMP:  58; 6HR MAX TEMP:  62;                                

MOSINEE        PTSUNNY   57  52  82 CALM      29.97S                  
MARSHFIELD     CLOUDY    58  51  78 CALM      29.95S                  
6HR MIN TEMP:  54; 6HR MAX TEMP:  58;                                

STEVENS POINT  CLOUDY    57  51  80 CALM      29.97S                  
6HR MIN TEMP:  53; 6HR MAX TEMP:  57;                                

WAUPACA        CLOUDY    62  50  65 E5        29.96S                  
6HR MIN TEMP:  56; 6HR MAX TEMP:  65;                                

WAUTOMA        CLOUDY    58  53  84 CALM      29.96S                  
6HR MIN TEMP:  53; 6HR MAX TEMP:  58; 6HR PCP: TRACE;                

WISC RAPIDS    CLOUDY    58  52  80 E3        29.96S                  
6HR MIN TEMP:  53; 6HR MAX TEMP:  59;                                

CAMP DOUGLAS   CLOUDY    58  54  86 E6        29.96R                  
6HR MIN TEMP:  54; 6HR MAX TEMP:  60;                                

$$
 
WIZ011>013-019>022-031-037>040-048>050-170100-
NORTHEAST WISCONSIN
  
CITY           SKY/WX    TMP DP  RH WIND       PRES   REMARKS
ANTIGO         PTSUNNY   61  51  68 S7        29.96R                  
6HR MIN TEMP:  59; 6HR MAX TEMP:  65;                                

SHAWANO        CLOUDY    65  51  62 CALM      29.95S                  
6HR MIN TEMP:  58; 6HR MAX TEMP:  66;                                

OCONTO         CLOUDY    60  50  69 E3        29.96S                  
6HR MIN TEMP:  58; 6HR MAX TEMP:  63;                                

STURGEON BAY   CLOUDY    58  48  69 MISG      29.97S                  
6HR MIN TEMP:  56; 6HR MAX TEMP:  62;                                

GREEN BAY      CLOUDY    61  49  64 SE7       29.96S                  
6HR MIN TEMP:  56; 6HR MAX TEMP:  63; 6HR PCP: TRACE;                

MANITOWOC      CLOUDY    56  48  74 N3        29.97S                  
6HR MIN TEMP:  52; 6HR MAX TEMP:  58;                                

APPLETON       CLOUDY    66  41  39 E5        29.95R                  
CLINTONVILLE   CLOUDY    61  49  65 SE3       29.95S                  
6HR MIN TEMP:  56; 6HR MAX TEMP:  64; 6HR PCP:  0.03;                

OSHKOSH        CLOUDY    58  48  69 E5        29.95S                  
6HR MIN TEMP:  57; 6HR MAX TEMP:  59;                                

$$
 
WIZ032>034-041-042-053>061-170100-
SOUTHWEST WISCONSIN
  
CITY           SKY/WX    TMP DP  RH WIND       PRES   REMARKS
LA CROSSE      CLOUDY    63  54  72 E5        29.93F                  
6HR MIN TEMP:  61; 6HR MAX TEMP:  65;                                

SPARTA         CLOUDY    58  53  84 CALM      29.95S                  
6HR MIN TEMP:  55; 6HR MAX TEMP:  58;                                

VIROQUA        CLOUDY    59  58  98 E8        29.94S                  
6HR MIN TEMP:  56; 6HR MAX TEMP:  61;                                

BOSCOBEL       CLOUDY    63  56  78 NE3       29.92F                  
6HR MIN TEMP:  60; 6HR MAX TEMP:  64;                                

PRAIRIE DU CHI CLOUDY    64  56  75 N6        29.90F                  
6HR MIN TEMP:  62; 6HR MAX TEMP:  64; 6HR PCP:  0.01;                

PLATTEVILLE    CLOUDY    61  61  98 N10       29.90F                  
6HR MIN TEMP:  60; 6HR MAX TEMP:  62;                                

$$

WIZ056-057-062-063-064-067-068-170100-
SOUTH CENTRAL WISCONSIN
  
CITY           SKY/WX    TMP DP  RH WIND       PRES   REMARKS
REEDSBURG      CLOUDY    58  54  86 NE6       29.93F                  
6HR MIN TEMP:  54; 6HR MAX TEMP:  60;                                

BARABOO/DELLS  CLOUDY    57  51  79 NE7       29.94S                  
6HR MIN TEMP:  53; 6HR MAX TEMP:  60;                                

LONE ROCK      CLOUDY    59  54  83 NE5       29.93S                  
6HR MIN TEMP:  57; 6HR MAX TEMP:  61;                                

MINERAL POINT  CLOUDY    61  61 100 N6        29.91F                  
MADISON        CLOUDY    61  56  83 CALM      29.92S                  
6HR MIN TEMP:  59; 6HR MAX TEMP:  61;                                

MIDDLETON      CLOUDY    61  56  84 N3        29.93F                  
6HR MIN TEMP:  59; 6HR MAX TEMP:  61;                                

WATERTOWN      CLOUDY    60  51  72 E8        29.92S                  
6HR MIN TEMP:  57; 6HR MAX TEMP:  64;                                

MONROE         CLOUDY    60  58  91 NE12      29.90F                  
6HR MIN TEMP:  59; 6HR MAX TEMP:  62;                                

JANESVILLE     PTSUNNY   64  55  72 NE8       29.91R                  
$$
 
WIZ051-052-058>065-066-070>072-170100-
SOUTHEAST WISCONSIN
  
CITY           SKY/WX    TMP DP  RH WIND       PRES   REMARKS
MILWAUKEE      CLOUDY    53  48  83 N8        29.93R                  
6HR MIN TEMP:  51; 6HR MAX TEMP:  57;                                

WAUKESHA       CLOUDY    55  48  76 NE8       29.94S                  
MILWAUKEE/TIMM CLOUDY    55  46  71 NE6       29.95                   
RACINE         CLOUDY    53  48  83 N8        29.94S                  
6HR MIN TEMP:  52; 6HR MAX TEMP:  59;                                

KENOSHA        CLOUDY    58  54  86 NE6       29.92S                  
6HR MIN TEMP:  57; 6HR MAX TEMP:  62;                                

FOND DU LAC    CLOUDY    60  49  66 E7        29.96R                  
6HR MIN TEMP:  58; 6HR MAX TEMP:  61; 6HR PCP: TRACE;                

SHEBOYGAN      CLOUDY    56  49  77 NE8       29.95S                  
6HR MIN TEMP:  54; 6HR MAX TEMP:  59;                                

WEST BEND      CLOUDY    55  52  88 NE9       29.94F                  
JUNEAU         CLOUDY    60  49  67 E7        29.95R                  
6HR MIN TEMP:  58; 6HR MAX TEMP:  64;                                

$$

LSZ147-162-170100-
LAKE SUPERIOR
  
STATION/POSITION TIME  TEMP    WIND        PRES    WAVE
                       AIR SEA DIR/SP/G            HT/PER
                 (UTC) (F)     (DEG/KT/KT) (MB)    (FT/S)
W MID LAKE BUOY  2350   42 38   40/  8/ 10 1015.7R   1/ 3
$$
 
LMZ867-665-643>646-170100-
LAKE MICHIGAN
  
STATION/POSITION TIME  TEMP    WIND        PRES    WAVE
                       AIR SEA DIR/SP/G            HT/PER
                 (UTC) (F)     (DEG/KT/KT) (MB)    (FT/S)
S GREEN BAY BUOY 2330   58 60   40/  8/ 12 1014.5R
N MID LAKE BUOY